| time (UTC) | temp C | wind direction | speed KPH | gust KPH | rain 1hr cm | rain 24hr cm | rain mn cm | humidity % | barometer mb |
| 20260510082519 | 9 | 1.6 | 3.2 | 0.00 | 0.03 | 0.00 | 99 | 1011.6 | |
| 20260510081537 | 9 | 1.6 | 1.6 | 0.00 | 0.03 | 0.00 | 99 | 1011.6 | |
| 20260510080526 | 9 | 1.6 | 1.6 | 0.00 | 0.03 | 0.00 | 99 | 1011.5 | |
| 20260510075522 | 9 | 1.6 | 1.6 | 0.00 | 0.03 | 0.00 | 99 | 1011.4 | |
| 20260510074517 | 8 | 1.6 | 1.6 | 0.00 | 0.03 | 0.00 | 99 | 1011.3 | |
| 20260510073518 | 8 | 1.6 | 3.2 | 0.00 | 0.03 | 0.00 | 100 | 1011.2 | |
| 20260510072519 | 8 | 1.6 | 1.6 | 0.00 | 0.03 | 0.00 | 100 | 1011.1 | |
| 20260510071521 | 9 | 1.6 | 1.6 | 0.00 | 0.03 | 0.00 | 100 | 1010.9 | |
| 20260510070518 | 9 | 1.6 | 1.6 | 0.00 | 0.03 | 0.00 | 100 | 1010.8 | |
| 20260510065542 | 9 | 1.6 | 1.6 | 0.00 | 0.03 | 0.00 | 100 | 1010.7 | |
| 20260510064518 | 9 | 1.6 | 3.2 | 0.00 | 0.03 | 0.00 | 99 | 1010.7 | |
| 20260510063519 | 10 | 1.6 | 3.2 | 0.00 | 0.03 | 0.00 | 99 | 1010.7 | |
| 20260510062519 | 10 | 1.6 | 3.2 | 0.00 | 0.03 | 0.00 | 99 | 1010.7 | |
| 20260510061519 | 10 | 1.6 | 3.2 | 0.00 | 0.03 | 0.00 | 99 | 1010.6 | |
| 20260510060520 | 10 | 1.6 | 1.6 | 0.00 | 0.03 | 0.00 | 99 | 1010.4 | |
| 20260510055519 | 10 | 1.6 | 1.6 | 0.00 | 0.03 | 0.00 | 99 | 1010.6 | |
| 20260510054519 | 10 | 1.6 | 1.6 | 0.00 | 0.03 | 0.00 | 99 | 1010.7 | |
| 20260510053516 | 11 | 1.6 | 1.6 | 0.00 | 0.03 | 0.00 | 98 | 1010.8 | |
| 20260510052521 | 11 | 1.6 | 1.6 | 0.00 | 0.03 | 0.00 | 98 | 1010.8 | |
| 20260510051520 | 11 | 1.6 | 1.6 | 0.00 | 0.03 | 0.00 | 98 | 1010.8 | |
| 20260510050600 | 11 | 1.6 | 1.6 | 0.00 | 0.03 | 0.00 | 98 | 1010.8 | |
| 20260510045517 | 11 | 1.6 | 1.6 | 0.00 | 0.03 | 0.00 | 98 | 1010.8 | |
| 20260510044523 | 11 | 1.6 | 1.6 | 0.00 | 0.03 | 0.00 | 97 | 1011.0 | |
| 20260510043518 | 12 | 1.6 | 1.6 | 0.00 | 0.03 | 0.00 | 97 | 1011.0 | |
| 20260510042542 | 12 | 1.6 | 1.6 | 0.00 | 0.03 | 0.00 | 97 | 1010.9 | |
| 20260510041518 | 12 | 1.6 | 1.6 | 0.00 | 0.03 | 0.00 | 96 | 1010.9 | |
| 20260510040518 | 12 | 1.6 | 3.2 | 0.00 | 0.03 | 0.00 | 96 | 1010.8 | |
| 20260510035518 | 12 | 1.6 | 3.2 | 0.00 | 0.03 | 0.03 | 95 | 1010.8 | |
| 20260510034518 | 12 | 1.6 | 3.2 | 0.00 | 0.03 | 0.03 | 94 | 1010.8 | |
| 20260510033518 | 12 | 1.6 | 3.2 | 0.00 | 0.03 | 0.03 | 94 | 1010.8 | |
| 20260510032520 | 13 | 1.6 | 3.2 | 0.00 | 0.03 | 0.03 | 92 | 1010.8 | |
| 20260510031540 | 13 | 1.6 | 3.2 | 0.00 | 0.03 | 0.03 | 91 | 1010.7 | |
| 20260510030519 | 14 | 1.6 | 1.6 | 0.00 | 0.03 | 0.03 | 89 | 1010.7 | |
| 20260510025519 | 15 | 1.6 | 1.6 | 0.00 | 0.03 | 0.03 | 87 | 1010.7 | |
| 20260510024539 | 15 | 1.6 | 3.2 | 0.00 | 0.03 | 0.03 | 86 | 1010.6 | |
| 20260510023557 | 15 | 3.2 | 4.8 | 0.00 | 0.03 | 0.03 | 85 | 1010.5 | |
| 20260510022520 | 15 | 3.2 | 6.4 | 0.00 | 0.03 | 0.03 | 85 | 1010.3 | |
| 20260510021520 | 15 | 1.6 | 1.6 | 0.00 | 0.03 | 0.03 | 85 | 1010.4 | |
| 20260510020517 | 16 | 1.6 | 6.4 | 0.00 | 0.03 | 0.03 | 84 | 1010.4 | |
| 20260510015518 | 16 | 3.2 | 8.0 | 0.00 | 0.03 | 0.03 | 83 | 1010.3 | |
| 20260510014518 | 16 | 3.2 | 8.0 | 0.00 | 0.03 | 0.03 | 82 | 1010.2 | |
| 20260510013518 | 16 | 3.2 | 8.0 | 0.00 | 0.03 | 0.03 | 81 | 1010.0 | |
| 20260510012518 | 16 | 4.8 | 8.0 | 0.00 | 0.03 | 0.03 | 81 | 1009.9 | |
| 20260510011518 | 16 | 4.8 | 8.0 | 0.00 | 0.03 | 0.03 | 80 | 1009.8 | |
| 20260510010538 | 16 | 4.8 | 8.0 | 0.00 | 0.03 | 0.03 | 80 | 1009.6 | |
| 20260510005518 | 17 | 3.2 | 6.4 | 0.00 | 0.03 | 0.03 | 80 | 1009.6 | |
| 20260510004520 | 17 | 1.6 | 3.2 | 0.00 | 0.03 | 0.03 | 78 | 1009.5 | |
| 20260510003519 | 17 | 1.6 | 3.2 | 0.00 | 0.03 | 0.03 | 77 | 1009.5 | |
| 20260510002521 | 18 | 1.6 | 3.2 | 0.00 | 0.03 | 0.03 | 76 | 1009.3 | |
| 20260510001519 | 18 | 1.6 | 3.2 | 0.00 | 0.03 | 0.03 | 74 | 1009.4 | |
| 20260510000516 | 19 | 1.6 | 3.2 | 0.00 | 0.03 | 0.03 | 72 | 1009.3 | |
| 20260509235519 | 20 | 4.8 | 8.0 | 0.00 | 0.03 | 0.03 | 70 | 1009.3 | |
| 20260509234520 | 20 | 1.6 | 3.2 | 0.00 | 0.03 | 0.03 | 68 | 1009.1 | |
| 20260509233700 | 21 | 3.2 | 4.8 | 0.00 | 0.03 | 0.03 | 66 | 1009.1 | |
| 20260509232517 | 21 | 3.2 | 6.4 | 0.00 | 0.03 | 0.03 | 62 | 1008.9 | |
| 20260509231517 | 22 | 1.6 | 3.2 | 0.00 | 0.03 | 0.03 | 58 | 1008.9 | |
| 20260509230517 | 22 | 1.6 | 3.2 | 0.00 | 0.03 | 0.03 | 56 | 1008.9 | |
| 20260509225520 | 22 | 1.6 | 3.2 | 0.00 | 0.03 | 0.03 | 55 | 1008.9 | |
| 20260509224519 | 22 | 3.2 | 4.8 | 0.00 | 0.03 | 0.03 | 55 | 1008.8 | |
| 20260509223541 | 22 | 1.6 | 3.2 | 0.00 | 0.03 | 0.03 | 55 | 1008.9 | |
| 20260509222517 | 22 | 1.6 | 4.8 | 0.00 | 0.03 | 0.03 | 57 | 1008.9 | |
| 20260509221517 | 22 | 3.2 | 4.8 | 0.00 | 0.03 | 0.03 | 56 | 1008.8 | |
| 20260509220517 | 22 | 3.2 | 4.8 | 0.00 | 0.03 | 0.03 | 56 | 1008.9 | |
| 20260509215518 | 21 | 1.6 | 3.2 | 0.00 | 0.03 | 0.03 | 58 | 1008.9 | |
| 20260509214540 | 20 | 1.6 | 3.2 | 0.00 | 0.03 | 0.03 | 61 | 1009.0 | |
| 20260509213519 | 21 | 1.6 | 3.2 | 0.00 | 0.03 | 0.03 | 60 | 1009.0 | |
| 20260509212519 | 21 | 3.2 | 4.8 | 0.00 | 0.03 | 0.03 | 58 | 1009.0 | |
| 20260509211520 | 21 | 1.6 | 3.2 | 0.00 | 0.03 | 0.03 | 59 | 1009.0 | |
| 20260509210516 | 21 | 3.2 | 3.2 | 0.00 | 0.03 | 0.03 | 62 | 1009.0 | |
| 20260509205519 | 21 | 1.6 | 4.8 | 0.00 | 0.03 | 0.03 | 60 | 1009.0 | |
| 20260509204520 | 20 | 3.2 | 6.4 | 0.00 | 0.03 | 0.03 | 59 | 1008.9 | |
| 20260509203517 | 20 | 3.2 | 6.4 | 0.00 | 0.03 | 0.03 | 60 | 1008.9 | |
| 20260509202517 | 20 | 1.6 | 4.8 | 0.00 | 0.03 | 0.03 | 60 | 1008.9 | |
| 20260509201558 | 20 | 3.2 | 6.4 | 0.00 | 0.03 | 0.03 | 60 | 1008.9 | |
| 20260509200520 | 20 | 6.4 | 8.0 | 0.00 | 0.03 | 0.03 | 61 | 1009.0 | |
| 20260509195520 | 20 | 4.8 | 8.0 | 0.00 | 0.03 | 0.03 | 61 | 1009.0 | |
| 20260509194538 | 20 | 3.2 | 6.4 | 0.00 | 0.03 | 0.03 | 61 | 1009.2 | |
| 20260509193518 | 20 | 3.2 | 4.8 | 0.00 | 0.03 | 0.03 | 61 | 1009.4 | |
| 20260509192518 | 20 | 3.2 | 4.8 | 0.00 | 0.03 | 0.03 | 61 | 1009.6 | |
| 20260509191518 | 19 | 1.6 | 4.8 | 0.00 | 0.03 | 0.03 | 61 | 1009.7 | |
| 20260509190519 | 19 | 3.2 | 6.4 | 0.00 | 0.03 | 0.03 | 61 | 1009.7 | |
| 20260509185519 | 19 | 3.2 | 6.4 | 0.00 | 0.03 | 0.03 | 61 | 1009.9 | |
| 20260509184519 | 19 | 4.8 | 6.4 | 0.00 | 0.03 | 0.03 | 61 | 1009.8 | |
| 20260509183519 | 18 | 4.8 | 6.4 | 0.00 | 0.03 | 0.03 | 62 | 1009.9 | |
| 20260509182519 | 18 | 1.6 | 4.8 | 0.00 | 0.03 | 0.03 | 62 | 1010.0 | |
| 20260509181518 | 18 | 1.6 | 3.2 | 0.00 | 0.03 | 0.03 | 61 | 1010.4 | |
| 20260509180519 | 18 | 1.6 | 3.2 | 0.00 | 0.03 | 0.03 | 60 | 1010.7 | |
| 20260509175520 | 18 | 1.6 | 3.2 | 0.00 | 0.03 | 0.03 | 60 | 1010.8 | |
| 20260509174537 | 18 | 3.2 | 4.8 | 0.00 | 0.03 | 0.03 | 60 | 1010.9 | |
| 20260509173517 | 18 | 1.6 | 4.8 | 0.00 | 0.03 | 0.03 | 61 | 1011.0 | |
| 20260509172559 | 17 | 1.6 | 3.2 | 0.00 | 0.03 | 0.03 | 61 | 1011.0 | |
| 20260509171520 | 17 | 1.6 | 3.2 | 0.00 | 0.03 | 0.03 | 62 | 1011.1 | |
| 20260509170538 | 17 | 3.2 | 4.8 | 0.00 | 0.03 | 0.03 | 62 | 1011.1 | |
| 20260509165521 | 17 | 3.2 | 6.4 | 0.00 | 0.03 | 0.03 | 63 | 1011.2 | |
| 20260509164519 | 17 | 3.2 | 6.4 | 0.00 | 0.03 | 0.03 | 63 | 1011.1 | |
| 20260509163559 | 18 | 4.8 | 6.4 | 0.00 | 0.03 | 0.03 | 61 | 1011.2 | |
| 20260509162522 | 17 | 1.6 | 4.8 | 0.00 | 0.03 | 0.03 | 61 | 1011.1 | |
| 20260509161519 | 18 | 3.2 | 6.4 | 0.00 | 0.03 | 0.03 | 61 | 1011.2 | |
| 20260509160539 | 17 | 3.2 | 6.4 | 0.00 | 0.03 | 0.03 | 63 | 1011.2 | |
| 20260509155541 | 17 | 3.2 | 4.8 | 0.00 | 0.03 | 0.03 | 60 | 1011.2 | |
| 20260509154537 | 18 | 1.6 | 4.8 | 0.00 | 0.03 | 0.03 | 60 | 1011.3 | |
| 20260509153519 | 18 | 3.2 | 4.8 | 0.00 | 0.03 | 0.03 | 59 | 1011.3 | |
| 20260509152524 | 17 | 1.6 | 3.2 | 0.00 | 0.03 | 0.03 | 61 | 1011.3 | |
| 20260509151540 | 16 | 3.2 | 6.4 | 0.00 | 0.03 | 0.03 | 61 | 1011.4 | |
| 20260509150519 | 16 | 3.2 | 6.4 | 0.00 | 0.03 | 0.03 | 61 | 1011.4 | |
| 20260509145518 | 16 | 4.8 | 6.4 | 0.00 | 0.03 | 0.03 | 61 | 1011.6 | |
| 20260509144517 | 16 | 3.2 | 6.4 | 0.00 | 0.03 | 0.03 | 62 | 1011.7 | |
| 20260509143518 | 15 | 3.2 | 8.0 | 0.00 | 0.03 | 0.03 | 61 | 1011.8 | |
| 20260509142520 | 15 | 3.2 | 9.7 | 0.00 | 0.03 | 0.03 | 61 | 1011.8 | |
| 20260509141518 | 15 | 3.2 | 6.4 | 0.00 | 0.03 | 0.03 | 62 | 1011.7 | |
| 20260509140519 | 15 | 3.2 | 6.4 | 0.00 | 0.03 | 0.03 | 62 | 1011.7 | |
| 20260509135518 | 15 | 3.2 | 8.0 | 0.00 | 0.03 | 0.03 | 60 | 1011.8 | |
| 20260509134518 | 16 | 4.8 | 6.4 | 0.00 | 0.03 | 0.03 | 61 | 1011.7 | |
| 20260509133518 | 15 | 3.2 | 6.4 | 0.00 | 0.03 | 0.03 | 61 | 1011.6 | |
| 20260509132521 | 15 | 4.8 | 8.0 | 0.00 | 0.03 | 0.03 | 60 | 1011.7 | |
| 20260509131516 | 15 | 4.8 | 8.0 | 0.00 | 0.03 | 0.03 | 60 | 1011.7 | |
| 20260509130519 | 15 | 3.2 | 6.4 | 0.03 | 0.03 | 0.03 | 61 | 1011.7 | |
| 20260509125519 | 15 | 3.2 | 8.0 | 0.03 | 0.03 | 0.03 | 60 | 1011.6 | |
| 20260509124519 | 15 | 3.2 | 8.0 | 0.03 | 0.05 | 0.03 | 60 | 1011.6 | |
| 20260509123519 | 15 | 3.2 | 6.4 | 0.03 | 0.05 | 0.03 | 62 | 1011.7 | |
| 20260509122518 | 15 | 3.2 | 8.0 | 0.03 | 0.05 | 0.03 | 62 | 1011.7 | |
| 20260509121517 | 15 | 1.6 | 4.8 | 0.03 | 0.05 | 0.03 | 62 | 1011.7 | |
| 20260509120520 | 15 | 1.6 | 3.2 | 0.00 | 0.03 | 0.00 | 62 | 1011.6 | |
| 20260509115521 | 15 | 1.6 | 4.8 | 0.00 | 0.03 | 0.00 | 62 | 1011.5 | |
| 20260509114518 | 14 | 1.6 | 3.2 | 0.00 | 0.03 | 0.00 | 62 | 1011.4 | |
| 20260509113517 | 14 | 1.6 | 3.2 | 0.00 | 0.03 | 0.00 | 62 | 1011.3 | |
| 20260509112538 | 13 | 1.6 | 3.2 | 0.00 | 0.03 | 0.00 | 62 | 1011.2 | |
| 20260509111559 | 13 | 1.6 | 4.8 | 0.00 | 0.03 | 0.00 | 61 | 1011.2 | |
| 20260509110518 | 13 | 3.2 | 4.8 | 0.00 | 0.03 | 0.00 | 62 | 1011.1 | |
| 20260509105518 | 13 | 1.6 | 4.8 | 0.00 | 0.03 | 0.00 | 62 | 1011.0 | |
| 20260509104539 | 13 | 1.6 | 3.2 | 0.00 | 0.03 | 0.00 | 61 | 1011.0 | |
| 20260509103539 | 13 | 1.6 | 4.8 | 0.00 | 0.03 | 0.00 | 61 | 1010.9 | |
| 20260509102520 | 13 | 1.6 | 3.2 | 0.00 | 0.03 | 0.00 | 60 | 1011.0 | |
| 20260509101519 | 13 | 1.6 | 4.8 | 0.00 | 0.03 | 0.00 | 59 | 1010.9 | |
| 20260509100519 | 13 | 1.6 | 4.8 | 0.00 | 0.03 | 0.00 | 59 | 1010.8 | |
| 20260509095519 | 13 | 1.6 | 4.8 | 0.00 | 0.03 | 0.00 | 59 | 1010.8 | |
| 20260509094517 | 13 | 3.2 | 4.8 | 0.00 | 0.03 | 0.00 | 59 | 1010.9 | |
| 20260509093519 | 13 | 3.2 | 4.8 | 0.00 | 0.03 | 0.00 | 59 | 1011.0 | |
| 20260509092542 | 13 | 1.6 | 3.2 | 0.00 | 0.03 | 0.00 | 60 | 1011.0 | |
| 20260509091520 | 13 | 1.6 | 3.2 | 0.00 | 0.03 | 0.00 | 60 | 1011.0 | |
| 20260509090517 | 13 | 1.6 | 3.2 | 0.00 | 0.03 | 0.00 | 60 | 1011.1 | |
| 20260509085517 | 13 | 1.6 | 3.2 | 0.00 | 0.03 | 0.00 | 59 | 1011.2 | |
| 20260509084517 | 13 | 1.6 | 4.8 | 0.00 | 0.03 | 0.00 | 59 | 1011.3 | |
| 20260509083518 | 13 | 3.2 | 6.4 | 0.00 | 0.03 | 0.00 | 59 | 1011.4 |